Time,TemperatureF,DewpointF,PressureIn,WindDirection,WindDirectionDegrees,WindSpeedMPH,WindSpeedGustMPH,Humidity,HourlyPrecipIn,Conditions,Clouds,dailyrainin,SoftwareType,DateUTC
2013-02-25 00:06:00,29.8,29.3,29.83,NNE,22,1.6,-999.0,98,-99.99,,,0.00,Acu-Link.com,2013-02-25 05:06:00,
2013-02-25 00:22:00,29.8,29.3,29.83,NNE,22,0.0,-999.0,98,-99.99,,,0.00,Acu-Link.com,2013-02-25 05:22:00,
2013-02-25 00:37:00,29.8,29.3,29.84,NNE,22,0.0,-999.0,98,-99.99,,,0.00,Acu-Link.com,2013-02-25 05:37:00,
2013-02-25 00:52:00,29.8,29.3,29.85,NNE,22,0.0,-999.0,98,-99.99,,,0.00,Acu-Link.com,2013-02-25 05:52:00,
2013-02-25 01:07:00,29.7,29.2,29.85,NNE,22,0.0,-999.0,98,-99.99,,,0.00,Acu-Link.com,2013-02-25 06:07:00,
2013-02-25 01:22:00,29.7,29.2,29.85,NNE,22,0.0,-999.0,98,-99.99,,,0.00,Acu-Link.com,2013-02-25 06:22:00,
2013-02-25 01:38:00,29.5,29.0,29.86,NNE,22,0.0,-999.0,98,-99.99,,,0.00,Acu-Link.com,2013-02-25 06:38:00,
2013-02-25 01:53:00,29.5,29.0,29.86,NNE,22,0.0,-999.0,98,-99.99,,,0.00,Acu-Link.com,2013-02-25 06:53:00,
2013-02-25 02:08:00,29.5,29.0,29.86,NNE,22,0.0,-999.0,98,-99.99,,,0.00,Acu-Link.com,2013-02-25 07:08:00,
2013-02-25 02:23:00,29.3,28.8,29.87,NNE,22,0.0,-999.0,98,-99.99,,,0.00,Acu-Link.com,2013-02-25 07:23:00,
2013-02-25 02:39:00,29.1,28.6,29.87,NNE,22,0.0,-999.0,98,-99.99,,,0.00,Acu-Link.com,2013-02-25 07:39:00,
2013-02-25 02:54:00,29.1,28.6,29.87,NNE,22,0.0,-999.0,98,-99.99,,,0.00,Acu-Link.com,2013-02-25 07:54:00,
2013-02-25 03:09:00,28.8,28.3,29.88,NNE,22,0.0,-999.0,98,-99.99,,,0.00,Acu-Link.com,2013-02-25 08:09:00,
2013-02-25 03:25:00,27.7,27.2,29.87,NNE,22,0.0,-999.0,98,-99.99,,,0.00,Acu-Link.com,2013-02-25 08:25:00,
2013-02-25 03:40:00,26.6,26.1,29.89,NNE,22,0.0,-999.0,98,-99.99,,,0.00,Acu-Link.com,2013-02-25 08:40:00,
2013-02-25 03:55:00,26.8,26.3,29.88,NNE,22,0.0,-999.0,98,-99.99,,,0.00,Acu-Link.com,2013-02-25 08:55:00,
2013-02-25 04:17:00,27.0,26.5,29.88,NNE,22,0.0,-999.0,98,-99.99,,,0.00,Acu-Link.com,2013-02-25 09:17:00,
2013-02-25 04:32:00,26.1,25.6,29.89,NNE,22,0.0,-999.0,98,-99.99,,,0.00,Acu-Link.com,2013-02-25 09:32:00,
2013-02-25 04:48:00,25.2,24.7,29.90,NNE,22,0.0,-999.0,98,-99.99,,,0.00,Acu-Link.com,2013-02-25 09:48:00,
2013-02-25 05:03:00,25.3,24.9,29.91,NNE,22,0.0,-999.0,98,-99.99,,,0.00,Acu-Link.com,2013-02-25 10:03:00,
2013-02-25 05:18:00,25.9,25.4,29.90,NNE,22,0.0,-999.0,98,-99.99,,,0.00,Acu-Link.com,2013-02-25 10:18:00,
2013-02-25 05:33:00,26.1,25.6,29.91,NNE,22,0.0,-999.0,98,-99.99,,,0.00,Acu-Link.com,2013-02-25 10:33:00,
2013-02-25 05:48:00,26.2,25.8,29.91,NNE,22,0.0,-999.0,98,-99.99,,,0.00,Acu-Link.com,2013-02-25 10:48:00,
2013-02-25 06:04:00,26.2,25.8,29.92,NNE,22,0.0,-999.0,98,-99.99,,,0.00,Acu-Link.com,2013-02-25 11:04:00,
2013-02-25 06:19:00,26.2,25.8,29.92,NNE,22,0.0,-999.0,98,-99.99,,,0.00,Acu-Link.com,2013-02-25 11:19:00,
2013-02-25 06:34:00,26.1,25.6,29.93,NNE,22,0.0,-999.0,98,-99.99,,,0.00,Acu-Link.com,2013-02-25 11:34:00,
2013-02-25 06:49:00,25.7,25.2,29.94,NNE,22,0.0,-999.0,98,-99.99,,,0.00,Acu-Link.com,2013-02-25 11:49:00,
2013-02-25 07:04:00,25.2,24.7,29.95,NNE,22,0.0,-999.0,98,-99.99,,,0.00,Acu-Link.com,2013-02-25 12:04:00,
2013-02-25 07:19:00,25.0,24.5,29.95,NNE,22,0.0,-999.0,98,-99.99,,,0.00,Acu-Link.com,2013-02-25 12:19:00,
2013-02-25 07:34:00,25.0,24.5,29.96,NNE,22,0.0,-999.0,98,-99.99,,,0.00,Acu-Link.com,2013-02-25 12:34:00,
2013-02-25 07:50:00,25.7,25.2,29.96,NNE,22,0.0,-999.0,98,-99.99,,,0.00,Acu-Link.com,2013-02-25 12:50:00,
2013-02-25 08:05:00,27.5,27.0,29.97,NNE,22,0.0,-999.0,98,-99.99,,,0.00,Acu-Link.com,2013-02-25 13:05:00,
2013-02-25 08:20:00,30.9,30.4,29.97,NNE,22,0.0,-999.0,98,-99.99,,,0.00,Acu-Link.com,2013-02-25 13:20:00,
2013-02-25 08:35:00,32.4,31.9,29.98,NNE,22,0.0,-999.0,98,-99.99,,,0.00,Acu-Link.com,2013-02-25 13:35:00,
2013-02-25 08:51:00,34.7,34.2,29.98,NNE,22,0.0,-999.0,98,-99.99,,,0.00,Acu-Link.com,2013-02-25 13:51:00,
2013-02-25 09:21:00,36.9,36.3,29.99,WSW,247,0.0,-999.0,98,-99.99,,,0.00,Acu-Link.com,2013-02-25 14:21:00,
2013-02-25 09:37:00,37.9,37.4,30.00,North,0,0.0,-999.0,98,-99.99,,,0.00,Acu-Link.com,2013-02-25 14:37:00,
2013-02-25 09:52:00,37.4,36.9,30.00,North,0,0.0,-999.0,98,-99.99,,,0.00,Acu-Link.com,2013-02-25 14:52:00,
2013-02-25 10:07:00,39.4,38.9,30.01,North,0,0.0,-999.0,98,-99.99,,,0.01,Acu-Link.com,2013-02-25 15:07:00,
2013-02-25 10:22:00,38.7,38.1,30.01,NNE,22,2.2,-999.0,98,-99.99,,,0.01,Acu-Link.com,2013-02-25 15:22:00,
2013-02-25 10:38:00,35.4,34.9,30.01,North,0,2.2,-999.0,98,-99.99,,,0.01,Acu-Link.com,2013-02-25 15:38:00,
2013-02-25 10:53:00,37.6,37.1,30.00,NNE,22,0.0,-999.0,98,-99.99,,,0.01,Acu-Link.com,2013-02-25 15:53:00,
2013-02-25 11:08:00,37.9,37.4,30.01,NNE,22,0.0,-999.0,98,-99.99,,,0.04,Acu-Link.com,2013-02-25 16:08:00,
2013-02-25 11:23:00,35.6,35.1,30.01,NNW,337,1.6,-999.0,98,-99.99,,,0.06,Acu-Link.com,2013-02-25 16:23:00,
2013-02-25 11:39:00,36.1,35.6,30.01,NNW,337,2.2,-999.0,98,-99.99,,,0.07,Acu-Link.com,2013-02-25 16:39:00,
2013-02-25 11:54:00,35.8,35.3,30.01,NE,45,0.0,-999.0,98,-99.99,,,0.08,Acu-Link.com,2013-02-25 16:54:00,
2013-02-25 12:09:00,36.5,36.0,30.01,NE,45,0.0,-999.0,98,-99.99,,,0.12,Acu-Link.com,2013-02-25 17:09:00,
2013-02-25 12:24:00,37.2,36.7,30.01,NE,45,0.0,-999.0,98,-99.99,,,0.13,Acu-Link.com,2013-02-25 17:24:00,
2013-02-25 12:39:00,39.7,39.2,30.02,NE,45,0.0,-999.0,98,-99.99,,,0.14,Acu-Link.com,2013-02-25 17:39:00,
2013-02-25 12:55:00,39.6,39.0,30.02,NE,45,0.0,-999.0,98,-99.99,,,0.15,Acu-Link.com,2013-02-25 17:55:00,
2013-02-25 13:10:00,39.7,39.2,30.02,NE,45,0.0,-999.0,98,-99.99,,,0.17,Acu-Link.com,2013-02-25 18:10:00,
2013-02-25 13:25:00,39.6,39.0,30.02,NE,45,0.0,-999.0,98,-99.99,,,0.17,Acu-Link.com,2013-02-25 18:25:00,
2013-02-25 13:40:00,38.8,38.3,30.03,NE,45,0.0,-999.0,98,-99.99,,,0.18,Acu-Link.com,2013-02-25 18:40:00,
2013-02-25 13:55:00,36.9,36.3,30.04,NE,45,0.0,-999.0,98,-99.99,,,0.19,Acu-Link.com,2013-02-25 18:55:00,
2013-02-25 14:11:00,36.3,35.8,30.04,NE,45,0.0,-999.0,98,-99.99,,,0.19,Acu-Link.com,2013-02-25 19:11:00,
2013-02-25 14:26:00,36.0,35.5,30.04,NE,45,0.0,-999.0,98,-99.99,,,0.19,Acu-Link.com,2013-02-25 19:26:00,
2013-02-25 14:41:00,35.6,35.1,30.05,NE,45,0.0,-999.0,98,-99.99,,,0.19,Acu-Link.com,2013-02-25 19:41:00,
2013-02-25 14:57:00,35.6,35.1,30.05,NE,45,0.0,-999.0,98,-99.99,,,0.20,Acu-Link.com,2013-02-25 19:57:00,
2013-02-25 15:12:00,36.0,35.5,30.05,NE,45,0.0,-999.0,98,-99.99,,,0.20,Acu-Link.com,2013-02-25 20:12:00,
2013-02-25 15:27:00,35.8,35.3,30.05,NE,45,0.0,-999.0,98,-99.99,,,0.20,Acu-Link.com,2013-02-25 20:27:00,
2013-02-25 15:43:00,36.5,36.0,30.06,NE,45,0.0,-999.0,98,-99.99,,,0.21,Acu-Link.com,2013-02-25 20:43:00,
2013-02-25 15:58:00,36.7,36.2,30.05,NE,45,0.0,-999.0,98,-99.99,,,0.32,Acu-Link.com,2013-02-25 20:58:00,
2013-02-25 16:13:00,36.7,36.2,30.06,NE,45,0.0,-999.0,98,-99.99,,,0.32,Acu-Link.com,2013-02-25 21:13:00,
2013-02-25 16:28:00,36.0,35.5,30.05,NE,45,0.0,-999.0,98,-99.99,,,0.33,Acu-Link.com,2013-02-25 21:28:00,
2013-02-25 16:44:00,36.0,35.5,30.06,NE,45,0.0,-999.0,98,-99.99,,,0.33,Acu-Link.com,2013-02-25 21:44:00,
2013-02-25 16:59:00,35.6,35.1,30.06,NE,45,0.0,-999.0,98,-99.99,,,0.33,Acu-Link.com,2013-02-25 21:59:00,
2013-02-25 17:14:00,34.7,34.2,30.06,NE,45,0.0,-999.0,98,-99.99,,,0.35,Acu-Link.com,2013-02-25 22:14:00,
2013-02-25 17:29:00,32.9,32.4,30.06,NE,45,1.6,-999.0,98,-99.99,,,0.35,Acu-Link.com,2013-02-25 22:29:00,
2013-02-25 17:45:00,31.8,31.3,30.06,NE,45,0.0,-999.0,98,-99.99,,,0.35,Acu-Link.com,2013-02-25 22:45:00,
2013-02-25 18:00:00,31.3,30.8,30.07,NE,45,0.0,-999.0,98,-99.99,,,0.35,Acu-Link.com,2013-02-25 23:00:00,
2013-02-25 18:15:00,31.3,30.8,30.07,NE,45,0.0,-999.0,98,-99.99,,,0.35,Acu-Link.com,2013-02-25 23:15:00,
2013-02-25 18:31:00,30.6,30.1,30.08,NE,45,0.0,-999.0,98,-99.99,,,0.35,Acu-Link.com,2013-02-25 23:31:00,
2013-02-25 18:46:00,30.6,30.1,30.10,NE,45,0.0,-999.0,98,-99.99,,,0.35,Acu-Link.com,2013-02-25 23:46:00,
2013-02-25 19:01:00,30.6,30.1,30.10,NE,45,0.0,-999.0,98,-99.99,,,0.35,Acu-Link.com,2013-02-26 00:01:00,
2013-02-25 19:16:00,30.6,30.1,30.11,NE,45,0.0,-999.0,98,-99.99,,,0.35,Acu-Link.com,2013-02-26 00:16:00,
2013-02-25 19:31:00,30.2,29.7,30.12,NE,45,0.0,-999.0,98,-99.99,,,0.35,Acu-Link.com,2013-02-26 00:31:00,
2013-02-25 19:47:00,30.2,29.7,30.12,NE,45,0.0,-999.0,98,-99.99,,,0.35,Acu-Link.com,2013-02-26 00:47:00,
2013-02-25 20:02:00,30.4,29.9,30.12,NE,45,0.0,-999.0,98,-99.99,,,0.35,Acu-Link.com,2013-02-26 01:02:00,
2013-02-25 20:17:00,30.2,29.7,30.13,NE,45,0.0,-999.0,98,-99.99,,,0.35,Acu-Link.com,2013-02-26 01:17:00,
2013-02-25 20:32:00,30.4,29.9,30.13,NE,45,0.0,-999.0,98,-99.99,,,0.35,Acu-Link.com,2013-02-26 01:32:00,
2013-02-25 20:48:00,30.4,29.9,30.13,NE,45,0.0,-999.0,98,-99.99,,,0.35,Acu-Link.com,2013-02-26 01:48:00,
2013-02-25 21:03:00,30.2,29.7,30.13,NE,45,0.0,-999.0,98,-99.99,,,0.35,Acu-Link.com,2013-02-26 02:03:00,
2013-02-25 21:18:00,29.8,29.3,30.12,NE,45,0.0,-999.0,98,-99.99,,,0.35,Acu-Link.com,2013-02-26 02:18:00,
2013-02-25 21:33:00,29.3,28.8,30.13,NE,45,0.0,-999.0,98,-99.99,,,0.35,Acu-Link.com,2013-02-26 02:33:00,
2013-02-25 21:49:00,29.3,28.8,30.13,NE,45,0.0,-999.0,98,-99.99,,,0.35,Acu-Link.com,2013-02-26 02:49:00,
2013-02-25 22:04:00,29.1,28.6,30.13,NE,45,0.0,-999.0,98,-99.99,,,0.35,Acu-Link.com,2013-02-26 03:04:00,
2013-02-25 22:19:00,28.8,28.3,30.13,NE,45,0.0,-999.0,98,-99.99,,,0.35,Acu-Link.com,2013-02-26 03:19:00,
2013-02-25 22:34:00,29.3,28.8,30.13,NE,45,0.0,-999.0,98,-99.99,,,0.35,Acu-Link.com,2013-02-26 03:34:00,
2013-02-25 22:49:00,29.8,29.3,30.13,NE,45,0.0,-999.0,98,-99.99,,,0.35,Acu-Link.com,2013-02-26 03:49:00,
2013-02-25 23:05:00,29.7,29.2,30.14,NE,45,0.0,-999.0,98,-99.99,,,0.35,Acu-Link.com,2013-02-26 04:05:00,
2013-02-25 23:20:00,29.7,29.2,30.14,NE,45,0.0,-999.0,98,-99.99,,,0.35,Acu-Link.com,2013-02-26 04:20:00,
2013-02-25 23:35:00,29.5,29.0,30.14,NE,45,0.0,-999.0,98,-99.99,,,0.35,Acu-Link.com,2013-02-26 04:35:00,
2013-02-25 23:50:00,28.6,28.1,30.14,NE,45,0.0,-999.0,98,-99.99,,,0.35,Acu-Link.com,2013-02-26 04:50:00,